Miscellaneous Local Product
Issued by NWS Hastings, NE

Home | Current Version | Previous Version | Graphics & Text | Print | Product List | Glossary On
Versions: 1 2 3 4 5 6 7 8 9 10 11 12 13 14 15 16 17 18 19 20 21 22 23 24 25 26 27 28 29 30 31 32 33 34 35 36 37 38 39 40 41 42 43 44 45 46 47 48 49 50
000
AXUS43 KGID 161802
MISGRI

GID CWA HOURLY WEATHER ROUNDUP
NATIONAL WEATHER SERVICE HASTINGS NE
100 PM CDT THU APR 16 2015

NOTE: "FAIR" INDICATES FEW OR NO CLOUDS BELOW 12,000 FEET WITH NO
SIGNIFICANT WEATHER AND/OR OBSTRUCTIONS TO VISIBILITY.

...SOUTH CENTRAL NEBRASKA...

CITY           SKY/WX    TMP DP  RH WIND       PRES   REMARKS
GRAND ISLAND   CLOUDY    59  53  80 VRB3      30.08R
HASTINGS       CLOUDY    59  54  83 S7        30.06S
KEARNEY        CLOUDY    55  54  94 NE9       30.07S
ORD            PTSUNNY   58  53  84 N9        30.07F
YORK           LGT RAIN  63  55  77 E7        30.06F
AURORA         CLOUDY    59  55  86 CALM      30.07R
LEXINGTON      CLOUDY    56  55  94 NE10      30.07R FOG
HOLDREGE       CLOUDY    55  53  91 E6        30.06S FOG

...NEBRASKA PANHANDLE...

CITY           SKY/WX    TMP DP  RH WIND       PRES   REMARKS
CHADRON        CLOUDY    50  40  68 N8        30.17S
ALLIANCE       CLOUDY    48  40  73 NE16      30.13S
SCOTTSBLUFF    CLOUDY    46  39  76 N6        30.16S
SIDNEY         CLOUDY    43  38  82 N16       30.12S

...WESTERN AND NORTH CENTRAL NEBRASKA...

CITY           SKY/WX    TMP DP  RH WIND       PRES   REMARKS
VALENTINE      NOT AVBL
AINSWORTH      CLOUDY    57  42  57 NW8       30.12R
ONEILL         CLOUDY    58  52  78 NW7       30.11R
BROKEN BOW     CLOUDY    57  52  83 NE13      30.08S HAZE
IMPERIAL       CLOUDY    54  50  86 N14       30.06S FOG
NORTH PLATTE   CLOUDY    56  49  77 NE16      30.07F
MCCOOK         CLOUDY    54  52  93 NE14      30.04S FOG

...EASTERN NEBRASKA...

CITY           SKY/WX    TMP DP  RH WIND       PRES   REMARKS
NORFOLK        NOT AVBL
SO SIOUX CITY  PTSUNNY   68  50  52 N5        30.07F
TEKAMAH        PTSUNNY   69  51  52 CALM      30.07S
COLUMBUS       PTSUNNY   66  50  55 NE5       30.08F
ALBION         CLOUDY    64  50  60 CALM      30.08S
OMAHA EPPLEY   PTSUNNY   67  51  56 E3        30.07S
OFFUTT AFB     PTSUNNY   65  52  62 S1        30.07R
MILLARD        MOSUNNY   66  52  61 CALM      30.07R
LINCOLN        CLOUDY    67  53  61 N5        30.07R
NEBRASKA CITY  PTSUNNY   68  49  51 SE6       30.06F
BEATRICE       LGT RAIN  66  56  69 SE5       30.05F
FALLS CITY     MOSUNNY   71  55  56 SE8       30.05F

...NORTHERN KANSAS...

CITY           SKY/WX    TMP DP  RH WIND       PRES   REMARKS
GOODLAND       CLOUDY    50  50 100 N10       30.04F FOG
HILL CITY      MOSUNNY   71  51  49 E10       29.99F
NORTON         MOCLDY    64  48  55 E9G16     30.00F
PHILLIPSBURG   MOSUNNY   72  54  53 NE9G16    30.00F
SMITH CENTER   SUNNY     66  54  63 E15G24    30.01F
BELOIT         SUNNY     63  52  67 E12       30.00F
HAYS           MOSUNNY   70  48  46 SE16      29.98F
RUSSELL        PTSUNNY   69  51  52 SW7       29.98S
CONCORDIA      CLOUDY    66  56  70 SE10      30.02F
SALINA         CLOUDY    69  56  62 S6        30.03S
TOPEKA         SUNNY     71  58  63 E7        30.05F



USA.gov is the U.S. government's official web portal to all federal, state and local government web resources and services.